User: anonymous
Location: Caltech
(34.1382°N, 118.1253°W)
Time: 02:18:32
(UTC-07:00)
Language:

Meteor 1-11 Rocket - Orbit

View from above orbital plane
View from above orbital plane
View from above satellite
View from above satellite

Ground track
Ground track

The orbit data is extracted from the following two-line orbital elements,

1 05918U 72022B   14112.42239704  .00000033  00000-0  12842-4 0  1467
2 05918 081.2388 359.9871 0057701 323.9748 158.2544 14.05699620156174
Epoch (UTC): 22 April 2014 10:08:15
Eccentricity: 0.0057701
inclination: 81.2388°
perigee height: 832 km
apogee height: 916 km
right ascension of ascending node: 359.9871°
argument of perigee: 323.9748°
revolutions per day: 14.05699620
mean anomaly at epoch: 158.2544°
orbit number at epoch: 15617

The dashed part of the orbit path shows where the satellite is in the earth's shadow,  

DLR